Time,TemperatureF,DewpointF,PressureIn,WindDirection,WindDirectionDegrees,WindSpeedMPH,WindSpeedGustMPH,Humidity,HourlyPrecipIn,Conditions,Clouds,dailyrainin,SoftwareType,DateUTC
2013-02-10 00:05:00,45.4,45.4,30.24,SE,141,0.0,0.0,100,0.00,,,0.01,Wunderground v.1.15,2013-02-10 08:05:00,
2013-02-10 00:35:00,45.1,45.1,30.25,SE,141,0.0,0.0,100,0.00,,,0.00,Wunderground v.1.15,2013-02-10 08:35:00,
2013-02-10 01:05:00,44.9,44.9,30.24,SE,141,0.0,0.0,100,0.00,,,0.00,Wunderground v.1.15,2013-02-10 09:05:00,
2013-02-10 01:35:00,44.2,44.2,30.24,SE,141,0.0,0.0,100,0.00,,,0.00,Wunderground v.1.15,2013-02-10 09:35:00,
2013-02-10 02:05:00,43.8,43.8,30.24,SE,141,0.0,0.0,100,0.00,,,0.00,Wunderground v.1.15,2013-02-10 10:05:00,
2013-02-10 02:35:00,43.2,43.2,30.25,SE,141,0.0,0.0,100,0.00,,,0.00,Wunderground v.1.15,2013-02-10 10:35:00,
2013-02-10 03:05:00,42.5,42.5,30.25,SE,141,0.0,0.0,100,0.00,,,0.00,Wunderground v.1.15,2013-02-10 11:05:00,
2013-02-10 03:35:00,42.2,42.2,30.25,SE,141,0.0,0.0,100,0.00,,,0.00,Wunderground v.1.15,2013-02-10 11:35:00,
2013-02-10 04:05:00,42.1,42.1,30.25,SE,141,0.0,0.0,100,0.00,,,0.01,Wunderground v.1.15,2013-02-10 12:05:00,
2013-02-10 04:35:00,41.9,41.9,30.25,SE,141,0.0,0.0,100,0.00,,,0.01,Wunderground v.1.15,2013-02-10 12:35:00,
2013-02-10 05:05:00,41.6,41.6,30.25,SE,141,0.0,0.0,100,0.00,,,0.01,Wunderground v.1.15,2013-02-10 13:05:00,
2013-02-10 05:35:00,41.5,41.5,30.26,SE,141,0.0,0.0,100,0.00,,,0.01,Wunderground v.1.15,2013-02-10 13:35:00,
2013-02-10 06:05:00,41.3,41.3,30.26,SE,141,0.0,0.0,100,0.00,,,0.01,Wunderground v.1.15,2013-02-10 14:05:00,
2013-02-10 06:35:00,41.5,41.5,30.26,SE,141,0.0,0.0,100,0.00,,,0.01,Wunderground v.1.15,2013-02-10 14:35:00,
2013-02-10 07:05:00,41.5,41.5,30.26,SE,141,0.0,0.0,100,0.00,,,0.01,Wunderground v.1.15,2013-02-10 15:05:00,
2013-02-10 07:35:00,41.5,41.5,30.27,SE,141,0.0,0.0,100,0.00,,,0.01,Wunderground v.1.15,2013-02-10 15:35:00,
2013-02-10 08:05:00,41.8,41.8,30.27,SE,141,0.0,0.0,100,0.00,,,0.01,Wunderground v.1.15,2013-02-10 16:05:00,
2013-02-10 08:35:00,42.3,42.3,30.28,SE,141,0.0,0.0,100,0.00,,,0.01,Wunderground v.1.15,2013-02-10 16:35:00,
2013-02-10 09:05:00,43.2,43.2,30.28,SE,140,0.0,0.0,100,0.00,,,0.01,Wunderground v.1.15,2013-02-10 17:05:00,
2013-02-10 09:35:00,45.8,45.8,30.28,SE,137,0.0,0.0,100,0.00,,,0.01,Wunderground v.1.15,2013-02-10 17:35:00,
2013-02-10 10:05:00,48.0,48.0,30.28,SE,136,0.0,0.0,100,0.00,,,0.01,Wunderground v.1.15,2013-02-10 18:05:00,
2013-02-10 10:35:00,48.0,48.0,30.28,East,90,0.0,0.0,100,0.00,,,0.01,Wunderground v.1.15,2013-02-10 18:35:00,
2013-02-10 11:05:00,49.5,45.8,30.28,ENE,69,0.0,0.0,87,0.00,,,0.01,Wunderground v.1.15,2013-02-10 19:05:00,
2013-02-10 11:35:00,49.6,44.6,30.28,NE,44,1.0,1.0,83,0.00,,,0.01,Wunderground v.1.15,2013-02-10 19:35:00,
2013-02-10 12:05:00,50.5,46.5,30.27,NE,52,0.0,0.0,86,0.00,,,0.01,Wunderground v.1.15,2013-02-10 20:05:00,
2013-02-10 12:35:00,51.0,46.0,30.27,NE,52,0.0,0.0,83,0.00,,,0.01,Wunderground v.1.15,2013-02-10 20:35:00,
2013-02-10 13:05:00,50.7,46.0,30.26,ENE,66,0.0,0.0,84,0.00,,,0.01,Wunderground v.1.15,2013-02-10 21:05:00,
2013-02-10 13:35:00,51.1,46.7,30.25,NE,54,0.0,0.0,85,0.00,,,0.01,Wunderground v.1.15,2013-02-10 21:35:00,
2013-02-10 14:05:00,51.6,48.2,30.25,NE,54,0.0,0.0,88,0.00,,,0.01,Wunderground v.1.15,2013-02-10 22:05:00,
2013-02-10 14:35:00,51.0,48.5,30.25,NE,55,0.0,0.0,91,0.00,,,0.01,Wunderground v.1.15,2013-02-10 22:35:00,
2013-02-10 15:05:00,50.4,48.2,30.25,NE,55,0.0,0.0,92,0.00,,,0.01,Wunderground v.1.15,2013-02-10 23:05:00,
2013-02-10 15:35:00,50.2,48.0,30.24,NE,54,0.0,0.0,92,0.00,,,0.01,Wunderground v.1.15,2013-02-10 23:35:00,
2013-02-10 16:05:00,49.8,47.3,30.24,NE,54,0.0,0.0,91,0.00,,,0.01,Wunderground v.1.15,2013-02-11 00:05:00,
2013-02-10 16:35:00,49.1,47.4,30.25,South,181,0.0,0.0,94,0.00,,,0.01,Wunderground v.1.15,2013-02-11 00:35:00,
2013-02-10 17:05:00,48.3,47.5,30.25,South,174,0.0,0.0,97,0.00,,,0.01,Wunderground v.1.15,2013-02-11 01:05:00,
2013-02-10 17:35:00,47.6,47.1,30.25,South,174,0.0,0.0,98,0.00,,,0.01,Wunderground v.1.15,2013-02-11 01:35:00,
2013-02-10 18:05:00,47.0,46.5,30.26,South,174,0.0,0.0,98,0.00,,,0.01,Wunderground v.1.15,2013-02-11 02:05:00,
2013-02-10 18:35:00,46.5,46.0,30.26,South,174,0.0,0.0,98,0.00,,,0.01,Wunderground v.1.15,2013-02-11 02:35:00,
2013-02-10 19:05:00,45.8,45.5,30.26,South,174,0.0,0.0,99,0.00,,,0.01,Wunderground v.1.15,2013-02-11 03:05:00,
2013-02-10 19:35:00,45.4,45.4,30.27,South,174,0.0,0.0,100,0.00,,,0.01,Wunderground v.1.15,2013-02-11 03:35:00,
2013-02-10 20:05:00,45.2,45.2,30.27,South,174,0.0,0.0,100,0.00,,,0.01,Wunderground v.1.15,2013-02-11 04:05:00,
2013-02-10 20:35:00,45.1,45.1,30.27,South,174,0.0,0.0,100,0.00,,,0.01,Wunderground v.1.15,2013-02-11 04:35:00,
2013-02-10 21:05:00,45.1,45.1,30.27,South,174,0.0,0.0,100,0.00,,,0.01,Wunderground v.1.15,2013-02-11 05:05:00,
2013-02-10 21:35:00,45.1,45.1,30.27,South,174,0.0,0.0,100,0.00,,,0.01,Wunderground v.1.15,2013-02-11 05:35:00,
2013-02-10 22:05:00,44.9,44.9,30.27,South,174,0.0,0.0,100,0.00,,,0.01,Wunderground v.1.15,2013-02-11 06:05:00,
2013-02-10 22:35:00,44.8,44.8,30.27,South,174,0.0,0.0,100,0.00,,,0.01,Wunderground v.1.15,2013-02-11 06:35:00,
2013-02-10 23:05:00,44.6,44.6,30.27,South,174,0.0,0.0,100,0.00,,,0.01,Wunderground v.1.15,2013-02-11 07:05:00,
2013-02-10 23:35:00,44.5,44.5,30.28,South,174,0.0,0.0,100,0.00,,,0.01,Wunderground v.1.15,2013-02-11 07:35:00,